User: anonymous   Login
Location: Unspecified
(0.0000°N, 0.0000°E)
Time: 20:06:00
(UTC+00:00)
Language:

USA 314 - Orbit

View from above orbital plane
View from above orbital plane
View from above satellite
View from above satellite

Ground track
Ground track

The orbit is defined by the following mean orbital elements,

1 48247U 21032A   25228.99004365 0.00000700  00000-0  93682-4 0    00
2 48247  98.0830 342.8275 0154125 107.3157 252.6841 14.71511175    09
Epoch (UTC): 16 August 2025 23:45:39
Eccentricity: 0.0154125
inclination: 98.0830°
perigee height: 548 km
apogee height: 764 km
right ascension of ascending node: 342.8275°
argument of perigee: 107.3157°
revolutions per day: 14.71511175
mean anomaly at epoch: 252.6841°

The dashed part of the orbit path shows where the satellite is in the earth's shadow,  

DLR